DW6022 Weather Reports


Display with metric or nautical units.
time (UTC)temp
F
wind
direction
speed
MPH
gust
MPH
rain 1hr
in
rain 24hr
in
rain mn
in
humidity
%
barometer
mb
20260507025151 52 360 10.0 16.0 0.00 9.13 0.03 76 1011.8
20260507024707 52 17 7.0 15.0 0.00 9.13 0.03 76 1011.7
20260507024203 53 46 7.0 16.0 0.00 9.13 0.03 74 1011.7
20260507023650 54 329 9.0 15.0 0.00 9.13 0.03 71 1011.8
20260507023200 53 355 10.0 17.0 0.00 9.13 0.03 73 1011.7
20260507022715 52 71 7.0 17.0 0.00 9.13 0.03 76 1011.7
20260507022216 52 347 5.0 15.0 0.00 9.13 0.03 78 1011.7
20260507021649 51 350 5.0 16.0 0.00 9.13 0.03 80 1011.8
20260507021225 51 302 9.0 17.0 0.00 9.13 0.03 81 1011.9
20260507020646 51 326 11.0 21.0 0.04 9.13 0.03 82 1011.8
20260507020154 51 355 11.0 23.0 0.04 9.13 0.03 82 1012.0
20260507015653 52 355 9.0 22.0 0.04 9.21 0.03 80 1012.0
20260507015147 52 355 11.0 22.0 0.04 9.21 0.03 79 1011.9
20260507014702 52 5 12.0 18.0 0.04 9.21 0.03 77 1011.7
20260507014202 52 5 10.0 22.0 0.08 9.21 0.03 77 1011.4
20260507013654 52 5 14.0 22.0 0.08 9.21 0.03 77 1011.5
20260507013204 53 9 12.0 19.0 0.08 9.21 0.03 77 1011.4
20260507012703 52 18 10.0 22.0 0.08 9.21 0.03 77 1011.2
20260507012154 53 25 6.0 22.0 0.08 9.21 0.03 77 1011.0
20260507011652 53 25 8.0 16.0 0.12 9.21 0.03 76 1011.0
20260507010706 53 67 7.0 13.0 0.08 9.17 0.02 77 1011.0
20260507010203 53 39 8.0 13.0 0.08 9.17 0.02 77 1011.0
20260507005701 53 32 5.0 11.0 0.08 9.29 0.02 76 1011.0
20260507005159 53 9 6.0 17.0 0.08 9.29 0.02 76 1011.0
20260507004657 53 351 8.0 17.0 0.08 9.29 0.02 75 1011.2
20260507004156 52 355 10.0 25.0 0.04 9.25 0.01 77 1011.2
20260507003653 52 360 13.0 27.0 0.04 9.25 0.01 80 1011.3
20260507003159 51 13 16.0 27.0 0.04 9.25 0.01 81 1011.5
20260507002657 52 12 13.0 26.0 0.04 9.25 0.01 78 1011.5
20260507002202 53 355 9.0 18.0 0.04 9.25 0.01 74 1011.4
20260507001701 53 355 10.0 22.0 0.00 9.21 0.00 74 1011.4
20260507001156 54 334 13.0 22.0 0.00 9.21 0.00 72 1011.4
20260507000712 54 360 9.0 16.0 0.00 9.21 0.00 72 1011.3
20260507000157 53 360 7.0 17.0 0.00 9.21 0.00 73 1011.3
20260506235654 53 341 8.0 17.0 0.00 9.37 0.00 74 1011.4
20260506235213 52 327 10.0 19.0 0.00 9.37 0.00 77 1011.5
20260506234727 52 11 10.0 21.0 0.00 9.37 0.00 80 1011.6
20260506234156 51 331 11.0 21.0 0.00 9.37 0.00 81 1011.7
20260506233651 51 15 11.0 24.0 0.00 9.37 0.00 82 1011.6
20260506233204 52 18 15.0 29.0 0.00 9.37 0.00 81 1011.7
20260506232703 53 322 15.0 29.0 0.00 9.37 0.00 76 1011.4
20260506232223 54 15 11.0 18.0 0.00 9.37 0.00 73 1011.2
20260506231712 54 339 11.0 18.0 0.00 9.37 0.00 72 1011.1
20260506231215 54 355 11.0 18.0 0.00 9.37 0.00 72 1011.1
20260506230652 54 32 11.0 21.0 0.00 9.37 0.00 72 1011.1
20260506230157 53 344 14.0 21.0 0.00 9.37 0.00 75 1011.2
20260506225657 53 21 11.0 21.0 0.00 9.72 0.00 74 1011.2
20260506225153 53 9 10.0 22.0 0.00 9.72 0.00 74 1011.1
20260506224654 53 331 11.0 22.0 0.00 9.72 0.00 77 1011.0
20260506224213 53 12 11.0 22.0 0.00 9.72 0.00 77 1011.0
20260506223649 53 5 13.0 22.0 0.00 9.72 0.00 77 1011.1
20260506223154 53 5 13.0 19.0 0.00 9.72 0.00 76 1011.2
20260506222649 54 31 13.0 19.0 0.00 9.72 0.00 76 1011.1
20260506222153 54 333 12.0 19.0 0.00 9.72 0.00 77 1011.0
20260506221704 54 348 12.0 19.0 0.00 9.72 0.00 76 1011.0
20260506221207 54 9 13.0 24.0 0.00 9.72 0.00 77 1010.8
20260506220659 54 355 13.0 24.0 0.00 9.72 0.00 75 1010.9
20260506220219 55 355 13.0 20.0 0.00 9.72 0.00 73 1011.0
20260506215654 55 338 11.0 21.0 0.00 1.04 2.47 72 1010.9
20260506215229 55 10 11.0 21.0 0.04 1.04 2.47 73 1010.8
20260506214655 55 355 12.0 18.0 0.04 1.04 2.47 72 1010.8
20260506214201 54 350 7.0 11.0 0.04 1.04 2.47 75 1010.8
20260506213700 54 23 0.0 7.0 0.04 1.04 2.47 77 1010.7
20260506213149 55 81 2.0 10.0 0.04 1.04 2.47 75 1010.7
20260506212648 55 5 5.0 14.0 0.04 1.04 2.47 72 1010.7
20260506212207 55 46 5.0 22.0 0.04 1.04 2.47 73 1010.6
20260506211658 54 15 9.0 23.0 0.04 1.04 2.47 73 1010.6
20260506211201 54 15 14.0 20.0 0.04 1.04 2.47 73 1010.6
20260506210655 55 327 12.0 20.0 0.04 1.04 2.47 74 1010.6
20260506210201 54 333 9.0 25.0 0.04 1.04 2.47 75 1010.5
20260506205652 54 5 9.0 16.0 0.04 1.04 2.47 75 1010.6
20260506205205 54 5 10.0 16.0 0.04 1.03 2.46 76 1010.7
20260506204659 54 338 7.0 18.0 0.04 1.03 2.46 78 1010.6
20260506204201 54 5 9.0 18.0 0.04 1.03 2.46 77 1010.6
20260506203702 54 26 9.0 16.0 0.04 1.03 2.46 77 1010.6
20260506203156 54 351 12.0 17.0 0.08 1.03 2.46 76 1010.5
20260506202657 54 10 9.0 14.0 0.08 1.03 2.46 78 1010.4
20260506202155 53 5 8.0 12.0 0.12 1.03 2.46 80 1010.5
20260506201706 53 306 5.0 11.0 0.16 1.03 2.46 79 1010.5
20260506201204 54 20 7.0 14.0 0.16 1.03 2.46 78 1010.3
20260506200655 53 360 9.0 17.0 0.16 1.03 2.46 80 1010.4
20260506200219 53 41 9.0 18.0 0.20 1.03 2.46 80 1010.2
20260506195655 52 52 9.0 18.0 0.43 1.04 2.46 82 1010.0
20260506195150 52 28 10.0 20.0 0.39 1.03 2.45 82 1009.9
20260506194704 52 11 9.0 20.0 0.39 1.03 2.45 82 1009.8
20260506194150 52 43 11.0 25.0 0.39 1.03 2.45 82 1009.8
20260506193648 51 64 15.0 25.0 0.39 1.03 2.45 85 1010.3
20260506193153 51 84 12.0 22.0 0.35 1.03 2.44 86 1010.1
20260506192706 51 83 11.0 24.0 0.35 1.03 2.44 86 1010.5
20260506192203 51 74 6.0 16.0 0.31 1.03 2.43 84 1010.7
20260506191653 51 5 10.0 15.0 0.28 1.02 2.42 84 1010.6
20260506191207 52 355 5.0 9.0 0.28 1.02 2.42 86 1010.9
20260506190656 52 336 3.0 11.0 0.28 1.02 2.42 84 1011.0
20260506190204 54 311 6.0 14.0 0.20 1.02 2.40 80 1010.7
20260506185705 55 277 7.0 20.0 0.00 1.00 2.35 76 1010.7
20260506185204 55 338 11.0 21.0 0.00 1.00 2.35 73 1009.9
20260506184657 55 5 12.0 21.0 0.00 1.00 2.35 74 1009.1
20260506184218 55 342 12.0 22.0 0.00 1.00 2.35 74 1009.1
20260506183651 56 42 13.0 21.0 0.00 1.00 2.35 72 1008.9
20260506183159 56 19 9.0 21.0 0.00 1.00 2.35 70 1008.8
20260506182655 56 355 8.0 14.0 0.00 1.00 2.35 69 1008.6
20260506182214 56 62 6.0 19.0 0.00 1.00 2.35 69 1008.6
20260506181647 56 337 10.0 19.0 0.00 1.00 2.35 68 1008.5
20260506181152 56 9 10.0 21.0 0.00 1.00 2.35 69 1008.3
20260506180659 56 341 11.0 21.0 0.00 1.00 2.35 70 1008.3
20260506180205 56 9 12.0 23.0 0.00 1.00 2.35 71 1008.4
20260506175702 55 5 13.0 23.0 0.00 1.00 2.35 73 1008.3
20260506175203 56 5 10.0 17.0 0.00 1.00 2.35 72 1008.2
20260506174721 56 46 8.0 19.0 0.00 1.00 2.35 72 1008.3
20260506174155 56 16 11.0 20.0 0.00 1.00 2.35 71 1008.2
20260506173714 56 337 10.0 17.0 0.00 1.00 2.35 70 1008.2
20260506173159 56 29 6.0 16.0 0.00 1.00 2.35 70 1008.1
20260506172653 56 10 8.0 24.0 0.00 1.00 2.35 71 1008.1
20260506172151 56 5 13.0 24.0 0.00 1.00 2.35 70 1008.1
20260506171701 56 17 11.0 21.0 0.00 1.00 2.35 71 1008.1
20260506171158 55 355 12.0 21.0 0.00 1.00 2.35 73 1008.2
20260506170648 55 355 13.0 24.0 0.00 1.00 2.35 75 1008.0
20260506170157 54 336 14.0 25.0 0.00 1.00 2.35 78 1008.0
20260506165653 55 351 15.0 25.0 0.04 1.00 2.35 77 1008.0
20260506165227 54 5 16.0 26.0 0.04 1.00 2.35 79 1008.0
20260506164704 54 340 15.0 26.0 0.08 1.00 2.35 81 1007.8
20260506164203 54 22 18.0 26.0 0.12 1.00 2.35 83 1008.0
20260506163702 54 5 11.0 20.0 0.16 1.00 2.35 83 1007.8
20260506163158 54 329 12.0 22.0 0.24 1.00 2.35 82 1007.6
20260506162655 54 5 9.0 25.0 0.31 1.00 2.35 82 1007.5
20260506162157 53 27 16.0 27.0 0.47 1.00 2.35 84 1007.6
20260506161659 53 60 14.0 28.0 0.63 1.00 2.35 86 1007.4
20260506161224 53 59 17.0 28.0 0.91 1.00 2.35 88 1007.4
20260506160705 53 19 15.0 28.0 1.61 1.00 2.35 91 1007.8
20260506160225 52 64 17.0 28.0 3.03 1.00 2.35 92 1007.5
20260506155701 52 60 16.0 24.0 4.02 1.00 2.34 93 1007.7
20260506155152 51 49 13.0 24.0 4.65 1.00 2.34 93 1007.9
20260506154711 51 34 12.0 20.0 4.92 9.96 2.33 93 1007.8
20260506154150 51 30 10.0 20.0 5.04 9.92 2.32 93 1007.8
20260506153712 51 46 11.0 20.0 5.16 9.88 2.31 93 1008.0
20260506153220 51 360 7.0 21.0 5.31 9.80 2.29 93 1008.1
20260506152701 51 329 10.0 21.0 5.24 9.72 2.27 93 1008.1
20260506152157 50 360 12.0 20.0 5.08 9.57 2.23 93 1008.1
20260506151657 50 346 6.0 21.0 4.88 9.37 2.18 92 1008.4
20260506151201 49 338 9.0 21.0 4.61 9.09 2.11 91 1008.4
20260506150700 50 14 7.0 25.0 3.86 8.27 1.92 90 1008.6
20260506150204 52 300 13.0 28.0 2.68 7.01 1.58 87 1008.3
20260506145646 53 360 16.0 28.0 1.57 5.94 1.29 86 1007.5
20260506145157 55 348 17.0 28.0 1.02 5.39 1.15 83 1007.0
20260506144654 56 341 15.0 26.0 0.71 5.08 1.07 83 1007.1
20260506144146 56 30 9.0 19.0 0.59 4.96 1.04 85 1007.0
20260506143704 57 5 7.0 14.0 0.43 4.80 1.00 85 1007.1
20260506143204 57 76 6.0 14.0 0.20 4.57 0.94 85 1007.3
20260506142654 58 329 5.0 9.0 0.20 4.57 0.94 86 1007.1
20260506142155 58 350 7.0 11.0 0.20 4.57 0.94 86 1007.4
20260506141711 58 22 5.0 11.0 0.20 4.57 0.94 87 1007.3
20260506141146 58 101 3.0 9.0 0.20 4.57 0.94 86 1007.3
20260506140657 59 111 5.0 9.0 0.08 4.45 0.91 85 1007.6
20260506140155 59 121 2.0 8.0 0.04 4.41 0.90 86 1007.9
20260506135704 59 69 6.0 8.0 0.04 4.49 0.89 86 1007.7
20260506135152 59 94 5.0 11.0 0.04 4.49 0.89 86 1007.6
20260506134726 59 91 5.0 11.0 0.04 4.49 0.89 86 1007.8
20260506134146 59 115 5.0 10.0 0.04 4.49 0.89 87 1007.9
20260506133703 58 82 3.0 9.0 0.04 4.49 0.89 88 1008.3
20260506133218 58 113 6.0 10.0 0.04 4.49 0.89 88 1008.0
20260506132659 58 98 3.0 8.0 0.08 4.49 0.89 88 1008.0
20260506132203 58 114 5.0 13.0 0.12 4.49 0.89 89 1008.1
20260506131659 58 117 5.0 13.0 0.12 4.49 0.89 89 1008.1
20260506131214 58 123 6.0 11.0 0.12 4.49 0.89 89 1008.0
20260506130726 58 126 5.0 10.0 0.12 4.49 0.89 89 1008.1
20260506130206 58 123 4.0 13.0 0.12 4.49 0.89 89 1008.1
20260506125646 58 104 7.0 13.0 0.12 4.45 0.88 89 1008.2
20260506125156 58 125 6.0 12.0 0.47 4.45 0.88 89 1008.2
20260506124705 58 156 6.0 12.0 0.87 4.45 0.88 90 1008.2
20260506124225 58 103 5.0 13.0 1.02 4.45 0.88 90 1008.2
20260506123705 57 76 6.0 13.0 1.10 4.45 0.88 90 1008.3
20260506123147 57 74 8.0 17.0 1.14 4.45 0.88 90 1008.4
20260506122710 57 120 8.0 17.0 1.10 4.41 0.87 89 1008.4
20260506122146 57 74 8.0 14.0 1.06 4.37 0.86 89 1008.4
20260506121702 57 124 7.0 11.0 1.06 4.37 0.86 89 1008.5
20260506121200 56 146 3.0 10.0 1.06 4.37 0.86 89 1008.5
20260506120706 56 128 4.0 8.0 1.06 4.37 0.86 89 1008.5
20260506120214 56 234 5.0 8.0 1.06 4.37 0.86 87 1008.6
20260506115651 57 215 2.0 7.0 0.98 4.33 0.84 86 1008.3
20260506115147 58 136 3.0 7.0 0.63 3.98 0.75 84 1008.1
20260506114651 58 115 2.0 6.0 0.28 3.62 0.66 84 1008.1
20260506114220 59 212 2.0 6.0 0.12 3.46 0.62 83 1008.3
20260506113651 59 102 2.0 7.0 0.04 3.39 0.60 81 1008.2
20260506113149 60 103 4.0 8.0 0.00 3.35 0.59 79 1008.1
20260506112703 60 96 4.0 9.0 0.00 3.35 0.59 79 1008.1
20260506112201 60 120 5.0 9.0 0.00 3.35 0.59 80 1008.0
20260506111659 60 117 6.0 12.0 0.00 3.35 0.59 79 1008.2
20260506111155 60 78 8.0 14.0 0.00 3.35 0.59 78 1008.2
20260506110715 61 136 7.0 14.0 0.00 3.35 0.59 78 1008.4
20260506110200 61 104 6.0 11.0 0.00 3.35 0.59 81 1008.4
20260506105651 61 214 7.0 12.0 0.00 3.35 0.59 81 1008.5
20260506105153 60 119 7.0 10.0 0.00 3.35 0.59 82 1008.5
20260506104708 59 182 5.0 10.0 0.00 3.35 0.59 86 1008.7
20260506104151 58 105 6.0 11.0 0.00 3.35 0.59 85 1008.7
20260506103707 58 99 6.0 11.0 0.00 3.35 0.59 85 1008.8
20260506103148 58 113 5.0 10.0 0.00 3.35 0.59 85 1008.7
20260506102703 58 148 7.0 10.0 0.04 3.35 0.59 86 1008.7
20260506102159 58 101 5.0 10.0 0.08 3.35 0.59 89 1008.7
20260506101648 56 76 7.0 9.0 0.24 3.35 0.59 90 1008.7
20260506101147 56 90 5.0 9.0 0.31 3.35 0.59 92 1008.8
20260506100701 55 101 6.0 9.0 0.39 3.35 0.59 92 1008.8
20260506100148 55 115 3.0 5.0 0.47 3.35 0.59 92 1008.8
20260506095700 54 29 3.0 4.0 0.55 3.35 0.59 92 1008.8
20260506095158 54 175 0.0 4.0 0.71 3.35 0.59 92 1008.9
20260506094653 54 176 2.0 4.0 0.83 3.35 0.59 92 1009.0
20260506094156 54 136 0.0 0.0 0.94 3.35 0.59 92 1008.9
20260506093651 54 136 0.0 10.0 0.98 3.35 0.59 92 1008.9
20260506093150 54 136 1.0 11.0 0.98 3.35 0.59 92 1008.9
20260506092702 54 350 7.0 10.0 0.94 3.31 0.58 92 1008.9
20260506092155 54 315 5.0 7.0 0.87 3.23 0.56 92 1008.9
20260506091654 55 325 4.0 7.0 0.75 3.11 0.53 91 1008.7
20260506091154 55 299 2.0 11.0 0.63 2.99 0.50 91 1008.8
20260506090650 54 328 2.0 14.0 0.55 2.91 0.48 91 1008.9
20260506090224 55 293 3.0 14.0 0.47 2.83 0.47 90 1008.9
20260506085723 55 282 3.0 7.0 0.39 3.11 0.44 90 1008.8
20260506085158 55 261 4.0 6.0 0.31 2.99 0.41 90 1008.8
20260506084648 55 102 0.0 5.0 0.20 2.87 0.38 90 1008.6
20260506084210 55 102 1.0 5.0 0.08 2.76 0.35 89 1008.3
20260506083705 55 103 1.0 3.0 0.04 2.72 0.34 89 1008.2
20260506083148 55 103 1.0 6.0 0.04 2.72 0.34 89 1008.1
20260506082709 55 103 2.0 6.0 0.08 2.72 0.34 89 1008.1
20260506082205 55 111 3.0 5.0 0.08 2.72 0.34 90 1008.2
20260506081649 55 109 3.0 5.0 0.12 2.72 0.34 90 1008.3
20260506081150 55 66 2.0 7.0 0.16 2.72 0.34 91 1008.2
20260506080659 55 86 4.0 7.0 0.20 2.72 0.34 91 1008.4
20260506080205 55 82 3.0 7.0 0.24 2.72 0.34 91 1008.4
20260506073219 54 64 2.0 7.0 0.20 3.43 0.33 91 1008.6
20260506072659 54 59 3.0 7.0 0.16 3.39 0.32 91 1008.6
20260506072212 54 40 3.0 7.0 0.12 3.35 0.31 91 1008.7
20260506071646 54 84 3.0 7.0 0.12 3.35 0.31 91 1008.7
20260506071205 54 88 5.0 8.0 0.08 3.31 0.30 91 1008.7
20260506070659 54 69 3.0 8.0 0.04 3.27 0.29 92 1008.9
20260506070200 54 89 3.0 6.0 0.00 3.23 0.28 92 1008.8
20260506062205 55 78 0.0 0.0 0.12 3.31 0.28 93 1008.7
20260506061657 55 78 0.0 0.0 0.16 3.31 0.28 93 1008.7
20260506061153 54 78 0.0 0.0 0.16 3.31 0.28 93 1008.7
20260506060648 55 79 0.0 6.0 0.16 3.31 0.28 93 1008.9
20260506060152 55 71 0.0 6.0 0.16 3.31 0.28 93 1008.9
20260506051202 55 83 5.0 8.0 0.24 3.15 0.24 93 1009.4
20260506050657 55 98 4.0 8.0 0.24 3.15 0.24 93 1009.3
20260506050158 55 70 3.0 9.0 0.24 3.15 0.24 93 1009.4
20260506044706 55 88 5.0 9.0 0.20 3.11 0.23 93 1009.3
20260506044207 55 92 4.0 9.0 0.16 3.07 0.22 93 1009.4
20260506043705 55 95 4.0 14.0 0.12 3.03 0.21 93 1009.5
20260506043207 55 80 7.0 14.0 0.08 2.99 0.20 93 1009.4
20260506042703 55 91 6.0 9.0 0.04 2.95 0.19 93 1009.4
20260506042145 55 107 6.0 10.0 0.00 2.91 0.18 93 1009.5
20260506041700 55 62 6.0 11.0 0.00 2.91 0.18 93 1009.4
20260506041201 55 64 6.0 11.0 0.00 2.91 0.18 93 1009.4
20260506040653 55 101 4.0 9.0 0.00 2.91 0.18 93 1009.4
20260506040204 55 111 5.0 8.0 0.00 2.91 0.18 93 1009.4
20260506035702 55 165 4.0 7.0 0.00 2.91 0.18 93 1009.4
20260506035205 55 111 3.0 8.0 0.00 2.91 0.18 93 1009.3
20260506034659 55 94 4.0 8.0 0.00 2.91 0.18 93 1009.4
20260506034203 55 113 4.0 8.0 0.00 2.91 0.18 93 1009.3
20260506033646 55 96 5.0 9.0 0.00 2.91 0.18 93 1009.3
20260506033146 55 103 5.0 9.0 0.00 2.91 0.18 93 1009.4
20260506032709 55 82 5.0 10.0 0.00 2.91 0.18 93 1009.5
20260506032159 55 86 5.0 10.0 0.00 2.91 0.18 93 1009.6
20260506031654 55 119 5.0 8.0 0.00 2.91 0.18 93 1009.6
20260506031156 55 93 3.0 8.0 0.00 2.91 0.18 93 1009.8
20260506030650 55 84 4.0 6.0 0.00 2.91 0.18 93 1009.8
20260506030201 55 118 3.0 7.0 0.00 2.91 0.18 93 1010.0
20260506025657 55 90 3.0 7.0 0.00 2.91 0.18 93 1010.0